Weather in St Ives

United Kingdom     50°12′37″N   5°29′08″W
temp.,
°C
wind,
m/s
gust,
m/s
humid.,
%
clouds,
%
prec.,
mm/h
press.,
hPa
HPBL,
m
18 april, sun
sun1801:00+5se2278100 0.0 102783
04:00+4sse227698 0.0 102681
07:00+5sse2274100 0.0 102685
10:00+8sse3465100 0.0 1026465
13:00+10s335489 0.0 1025983
16:00+10s44559 0.0 1024910
19:00+9s346426 0.0 1024438
22:00+6sse237490 0.0 102592
19 april, mon
mon1901:00+6se3377100 0.0 102493
04:00+7se357485 0.0 1022148
07:00+6se3480100 0.0 1022117
10:00+9sse4572100 0.0 1021658
13:00+11sse4569100 0.0 1021587
16:00+11s4572100 0.0 1020514
19:00+9sse4480100 0.0 1019459
22:00+8sse3387100 0.0 1020127
20 april, tue
tue2001:00+7se2288100 0.0 101977
04:00+7sse2288100 0.0 101868
07:00+7ese2186100 0.0 101858
10:00+9e1174100 0.0 1019308
13:00+10n2271100 0.0 1019516
16:00+11nne4467100 0.0 1019562
19:00+10nne4578100 0.0 1020373
22:00+9ne4784100 0.0 1021265
21 april, wed
wed2101:00+8ne358998 0.0 1021143
04:00+7e348429 0.0 102195
07:00+7ese35825 0.0 1021114
10:00+11ese46655 0.0 1022450
13:00+12ese56665 0.0 1022646
16:00+12ese67690 0.0 1022581
19:00+11ese68821 0.0 1022419
22:00+8ese712890 0.0 1023390
22 april, thu
thu2201:00+8ese813911 0.0 1023510
04:00+8ese913844 0.0 1023554
07:00+8ese1014790 0.0 1022490
10:00+10ese1114770 0.0 1022681
13:00+11ese1114720 0.0 1022719
16:00+11ese1114740 0.0 1021673
19:00+9ese1216820 0.0 1020480
22:00+9ese1218850 0.0 1020441